Location: Unspecified
(0.0000°N, 0.0000°E)
Time: 14:28:38
(UTC+00:00)

CZ-4C R/B - Pass Details

Date: 27 January 2013
Orbit: 739 x 1263 km, 63.4° (Epoch: 28 July)

Event Time Altitude Azimuth Distance (km) Brightness Sun altitude
Rises 18:42:40 0° 343° (NNW) 4,079 5.7 -7.1°
Reaches altitude 10° 18:45:23 10° 346° (NNW) 3,162 5.1 -7.7°
Maximum altitude 18:53:06 66° 68° (ENE) 1,356 3.0 -9.5°
Drops below altitude 10° 19:00:56 10° 148° (SSE) 3,223 5.1 -11.4°
Sets 19:03:44 0° 151° (SSE) 4,162 5.7 -12.1°
